Time,TemperatureF,DewpointF,PressureIn,WindDirection,WindDirectionDegrees,WindSpeedMPH,WindSpeedGustMPH,Humidity,HourlyPrecipIn,Conditions,Clouds,dailyrainin,SoftwareType,DateUTC
2013-08-18 00:05:00,67.5,56.3,30.23,North,0,0.0,0.0,60,0.00,NA,NA,0.00,meteo_script,2013-08-18 05:05:00,
2013-08-18 00:35:00,66.4,56.0,30.23,North,0,0.0,0.0,62,0.00,NA,NA,0.00,meteo_script,2013-08-18 05:35:00,
2013-08-18 01:05:00,65.4,55.4,30.22,North,0,0.0,0.0,62,0.00,NA,NA,0.00,meteo_script,2013-08-18 06:05:00,
2013-08-18 01:35:00,64.9,54.9,30.23,North,0,0.0,0.0,63,0.00,NA,NA,0.00,meteo_script,2013-08-18 06:35:00,
2013-08-18 02:05:00,64.6,54.3,30.22,North,0,0.0,0.0,62,0.00,NA,NA,0.00,meteo_script,2013-08-18 07:05:00,
2013-08-18 02:35:00,64.0,54.1,30.23,SSW,202,0.1,1.0,63,0.00,NA,NA,0.00,meteo_script,2013-08-18 07:35:00,
2013-08-18 03:05:00,63.2,54.3,30.22,North,0,0.0,0.0,65,0.00,NA,NA,0.00,meteo_script,2013-08-18 08:05:00,
2013-08-18 03:35:00,62.7,54.1,30.22,SSW,203,0.3,2.0,67,0.00,NA,NA,0.00,meteo_script,2013-08-18 08:35:00,
2013-08-18 04:05:00,62.0,54.1,30.22,North,0,0.0,0.0,69,0.00,NA,NA,0.00,meteo_script,2013-08-18 09:05:00,
2013-08-18 04:35:00,61.5,53.9,30.23,North,0,0.0,0.0,70,0.00,NA,NA,0.00,meteo_script,2013-08-18 09:35:00,
2013-08-18 05:05:00,61.0,53.7,30.23,North,0,0.0,0.0,71,0.00,NA,NA,0.00,meteo_script,2013-08-18 10:05:00,
2013-08-18 05:35:00,60.9,53.6,30.23,North,0,0.0,0.0,71,0.00,NA,NA,0.00,meteo_script,2013-08-18 10:35:00,
2013-08-18 06:05:00,60.5,53.6,30.24,North,0,0.0,0.0,72,0.00,NA,NA,0.00,meteo_script,2013-08-18 11:05:00,
2013-08-18 06:35:00,60.4,53.4,30.24,North,0,0.0,0.0,72,0.00,NA,NA,0.00,meteo_script,2013-08-18 11:35:00,
2013-08-18 07:05:00,60.5,53.8,30.25,North,0,0.0,0.0,73,0.00,NA,NA,0.00,meteo_script,2013-08-18 12:05:00,
2013-08-18 07:35:00,60.7,54.0,30.25,North,0,0.0,0.0,73,0.00,NA,NA,0.00,meteo_script,2013-08-18 12:35:00,
2013-08-18 08:05:00,62.0,54.8,30.26,North,0,0.0,0.0,71,0.00,NA,NA,0.00,meteo_script,2013-08-18 13:05:00,
2013-08-18 08:35:00,64.6,56.2,30.26,North,0,0.0,0.0,68,0.00,NA,NA,0.00,meteo_script,2013-08-18 13:35:00,
2013-08-18 09:05:00,66.3,56.9,30.26,North,0,0.0,0.0,65,0.00,NA,NA,0.00,meteo_script,2013-08-18 14:05:00,
2013-08-18 09:35:00,69.0,58.4,30.26,SW,215,0.4,2.0,62,0.00,NA,NA,0.00,meteo_script,2013-08-18 14:35:00,
2013-08-18 10:05:00,71.2,59.5,30.25,SW,217,0.1,1.0,59,0.00,NA,NA,0.00,meteo_script,2013-08-18 15:05:00,
2013-08-18 10:35:00,73.5,60.8,30.26,SSW,206,0.7,3.0,57,0.00,NA,NA,0.00,meteo_script,2013-08-18 15:35:00,
2013-08-18 11:05:00,75.4,61.4,30.25,SW,228,0.5,3.0,54,0.00,NA,NA,0.00,meteo_script,2013-08-18 16:05:00,
2013-08-18 11:35:00,77.3,62.2,30.24,SSW,213,0.1,1.0,51,0.00,NA,NA,0.00,meteo_script,2013-08-18 16:35:00,
2013-08-18 12:05:00,78.7,60.3,30.24,North,0,0.0,0.0,45,0.00,NA,NA,0.00,meteo_script,2013-08-18 17:05:00,
2013-08-18 12:35:00,80.0,61.4,30.23,NE,51,0.2,1.0,44,0.00,NA,NA,0.00,meteo_script,2013-08-18 17:35:00,
2013-08-18 13:05:00,81.0,60.9,30.23,SW,223,0.3,2.0,42,0.00,NA,NA,0.00,meteo_script,2013-08-18 18:05:00,
2013-08-18 13:35:00,81.0,58.8,30.22,North,0,0.0,0.0,38,0.00,NA,NA,0.00,meteo_script,2013-08-18 18:35:00,
2013-08-18 14:05:00,81.8,58.4,30.21,SW,220,0.0,1.0,36,0.00,NA,NA,0.00,meteo_script,2013-08-18 19:05:00,
2013-08-18 14:35:00,81.8,58.9,30.21,SW,217,1.4,3.0,37,0.00,NA,NA,0.00,meteo_script,2013-08-18 19:35:00,
2013-08-18 15:05:00,82.1,59.7,30.20,SSW,195,1.1,3.0,38,0.00,NA,NA,0.00,meteo_script,2013-08-18 20:05:00,
2013-08-18 15:35:00,82.4,59.9,30.18,SSW,213,0.8,4.0,38,0.00,NA,NA,0.00,meteo_script,2013-08-18 20:35:00,
2013-08-18 16:05:00,83.2,60.2,30.18,SSW,200,0.5,3.0,37,0.00,NA,NA,0.00,meteo_script,2013-08-18 21:05:00,
2013-08-18 16:35:00,82.7,58.6,30.17,SSW,213,1.6,5.0,35,0.00,NA,NA,0.00,meteo_script,2013-08-18 21:35:00,
2013-08-18 17:05:00,82.6,57.9,30.17,South,177,0.1,1.0,34,0.00,NA,NA,0.00,meteo_script,2013-08-18 22:05:00,
2013-08-18 17:35:00,82.1,59.7,30.16,SW,226,2.8,5.0,38,0.00,NA,NA,0.00,meteo_script,2013-08-18 22:35:00,
2013-08-18 18:05:00,82.0,59.3,30.17,SSW,194,1.6,5.0,37,0.00,NA,NA,0.00,meteo_script,2013-08-18 23:05:00,
2013-08-18 18:35:00,81.6,58.1,30.17,South,183,0.1,1.0,36,0.00,NA,NA,0.00,meteo_script,2013-08-18 23:35:00,
2013-08-18 19:05:00,80.3,59.2,30.15,South,191,0.8,4.0,40,0.00,NA,NA,0.00,meteo_script,2013-08-19 00:05:00,
2013-08-18 19:35:00,79.0,60.1,30.15,SSW,197,0.1,1.0,44,0.00,NA,NA,0.00,meteo_script,2013-08-19 00:35:00,
2013-08-18 20:05:00,77.4,59.7,30.15,North,0,0.0,0.0,46,0.00,NA,NA,0.00,meteo_script,2013-08-19 01:05:00,
2013-08-18 20:35:00,75.6,59.9,30.16,North,0,0.0,0.0,50,0.00,NA,NA,0.00,meteo_script,2013-08-19 01:35:00,
2013-08-18 21:05:00,73.8,59.5,30.15,North,0,0.0,0.0,53,0.00,NA,NA,0.00,meteo_script,2013-08-19 02:05:00,
2013-08-18 21:35:00,72.9,59.4,30.15,North,0,0.0,0.0,54,0.00,NA,NA,0.00,meteo_script,2013-08-19 02:35:00,
2013-08-18 22:05:00,71.3,58.8,30.16,North,0,0.0,0.0,57,0.00,NA,NA,0.00,meteo_script,2013-08-19 03:05:00,
2013-08-18 22:35:00,70.6,58.8,30.16,SSW,208,0.0,1.0,59,0.00,NA,NA,0.00,meteo_script,2013-08-19 03:35:00,
2013-08-18 23:05:00,69.2,58.3,30.16,North,0,0.0,0.0,61,0.00,NA,NA,0.00,meteo_script,2013-08-19 04:05:00,
2013-08-18 23:35:00,68.5,58.3,30.15,North,0,0.0,0.0,63,0.00,NA,NA,0.00,meteo_script,2013-08-19 04:35:00,